FW1946 Weather Reports


Display with metric or nautical units.
time (UTC)temp
F
wind
direction
speed
MPH
gust
MPH
rain 1hr
in
rain 24hr
in
rain mn
in
humidity
%
barometer
mb
20260506061537 59 226 2.0 10.0 0.00 0.00 0.00 76 1015.6
20260506044535 59 242 1.0 9.0 0.00 0.00 0.00 74 1014.7
20260506043035 60 244 2.0 13.0 0.00 0.00 0.00 73 1014.5
20260506041652 60 249 2.0 9.0 0.00 0.00 0.00 73 1014.4
20260506033035 61 251 1.0 9.0 0.00 0.00 0.00 71 1013.7
20260506031535 61 243 2.0 12.0 0.00 0.00 0.00 70 1013.5
20260506030036 62 277 2.0 10.0 0.00 0.00 0.00 69 1013.2
20260506024533 62 283 2.0 11.0 0.00 0.00 0.00 68 1013.0
20260506023033 63 282 2.0 10.0 0.00 0.00 0.00 67 1013.1
20260506020031 64 258 1.0 9.0 0.00 0.00 0.00 65 1013.0
20260506014533 65 259 2.0 10.0 0.00 0.00 0.00 63 1012.8
20260506013032 66 274 2.0 9.0 0.00 0.00 0.00 63 1012.7
20260506011530 67 260 1.0 7.0 0.00 0.00 0.00 61 1012.8
20260506010107 67 262 2.0 11.0 0.00 0.00 0.00 60 1012.8
20260506004535 68 233 1.0 8.0 0.00 0.00 0.00 59 1012.7
20260506003043 69 246 2.0 9.0 0.00 0.00 0.00 58 1012.7
20260506001607 69 248 2.0 9.0 0.00 0.00 0.00 58 1012.6
20260506000034 69 257 2.0 11.0 0.00 0.00 0.00 59 1012.6
20260505233037 69 249 2.0 11.0 0.00 0.00 0.00 58 1012.8
20260505231534 70 284 2.0 10.0 0.00 0.00 0.00 58 1012.8
20260505230034 70 286 2.0 11.0 0.00 0.00 0.00 58 1012.9
20260505224644 69 278 2.0 10.0 0.00 0.00 0.00 58 1013.0
20260505223035 70 267 2.0 16.0 0.00 0.00 0.00 58 1013.0
20260505221537 69 283 2.0 12.0 0.00 0.00 0.00 58 1013.2
20260505214532 69 265 2.0 12.0 0.00 0.00 0.00 58 1013.5
20260505213108 70 266 2.0 15.0 0.00 0.00 0.00 58 1013.6
20260505211536 70 274 2.0 11.0 0.00 0.00 0.00 58 1013.6
20260505210038 70 271 2.0 11.0 0.00 0.00 0.00 57 1013.8
20260505204533 70 269 3.0 10.0 0.00 0.00 0.00 56 1013.9
20260505203037 70 254 2.0 10.0 0.00 0.00 0.00 56 1014.0
20260505201530 70 267 2.0 9.0 0.00 0.00 0.00 56 1014.1
20260505200037 69 277 2.0 12.0 0.00 0.00 0.00 57 1014.3
20260505194530 69 277 2.0 8.0 0.00 0.00 0.00 57 1014.4
20260505193031 69 263 2.0 9.0 0.00 0.00 0.00 57 1014.5
20260505191533 68 275 2.0 13.0 0.00 0.00 0.00 58 1014.5
20260505184534 68 268 2.0 8.0 0.00 0.00 0.00 59 1014.6
20260505183031 67 285 2.0 10.0 0.00 0.00 0.00 60 1014.7
20260505181612 67 284 2.0 9.0 0.00 0.00 0.00 61 1014.8
20260505180036 66 271 2.0 12.0 0.00 0.00 0.00 62 1014.8
20260505174536 65 265 3.0 15.0 0.00 0.00 0.00 63 1014.8
20260505173031 65 278 3.0 9.0 0.00 0.00 0.00 64 1014.7
20260505171606 64 266 2.0 11.0 0.00 0.00 0.00 65 1014.7
20260505170107 64 272 2.0 16.0 0.00 0.00 0.00 65 1014.8
20260505164534 64 276 2.0 12.0 0.00 0.00 0.00 66 1014.7
20260505163031 63 288 2.0 10.0 0.00 0.00 0.00 68 1014.6
20260505161535 62 262 2.0 9.0 0.00 0.00 0.00 69 1014.8
20260505151536 60 246 1.0 8.0 0.00 0.00 0.00 74 1014.7
20260505130108 55 232 1.0 6.0 0.00 0.00 0.00 82 1013.8
20260505124535 55 258 1.0 7.0 0.00 0.00 0.00 81 1013.6
20260505123106 56 264 1.0 11.0 0.00 0.00 0.00 81 1013.6
20260505121536 56 264 1.0 6.0 0.00 0.00 0.00 81 1013.4
20260505114531 56 267 1.0 5.0 0.00 0.00 0.00 80 1013.3
20260505113037 57 276 1.0 9.0 0.00 0.00 0.00 79 1013.3
20260505111531 57 248 1.0 9.0 0.00 0.00 0.00 79 1013.2
20260505101536 58 274 1.0 6.0 0.00 0.00 0.00 77 1012.7
20260505100046 59 256 1.0 9.0 0.00 0.00 0.00 76 1012.6
20260505094642 59 267 2.0 10.0 0.00 0.00 0.00 76 1012.5
20260505093037 59 263 2.0 11.0 0.00 0.00 0.00 75 1012.4
20260505091535 60 259 1.0 9.0 0.00 0.00 0.00 75 1012.3
20260505090036 60 271 2.0 8.0 0.00 0.00 0.00 74 1012.2
20260505084532 61 268 1.0 8.0 0.00 0.00 0.00 74 1012.1
20260505083110 62 255 2.0 11.0 0.00 0.00 0.00 74 1012.1
20260505081536 62 277 1.0 11.0 0.00 0.00 0.00 74 1011.9
20260505080035 62 258 1.0 6.0 0.00 0.00 0.00 74 1011.8
20260505074535 63 256 1.0 7.0 0.00 0.00 0.00 73 1011.6
20260505073032 63 265 1.0 6.0 0.00 0.00 0.00 73 1011.6